TimeEST,TemperatureF,Dew PointF,Humidity,Sea Level PressureIn,VisibilityMPH,Wind Direction,Wind SpeedMPH,Gust SpeedMPH,PrecipitationIn,Events,Conditions,WindDirDegrees,DateUTC
12:15 AM,25.5,21.4,84,30.27,10.0,Calm,Calm,-,N/A,,Clear,0,2012-11-20 05:15:00
12:35 AM,24.8,21.2,86,30.26,10.0,Calm,Calm,-,N/A,,Clear,0,2012-11-20 05:35:00
12:55 AM,24.4,20.8,86,30.25,10.0,Calm,Calm,-,N/A,,Clear,0,2012-11-20 05:55:00
1:15 AM,24.1,21.2,89,30.25,10.0,Calm,Calm,-,N/A,,Clear,0,2012-11-20 06:15:00
1:35 AM,24.1,20.5,86,30.25,10.0,WNW,3.5,-,N/A,,Clear,300,2012-11-20 06:35:00
1:55 AM,24.6,21.0,86,30.25,10.0,Calm,Calm,-,N/A,,Clear,0,2012-11-20 06:55:00
2:15 AM,23.0,20.1,89,30.25,10.0,Calm,Calm,-,N/A,,Clear,0,2012-11-20 07:15:00
2:35 AM,23.0,20.3,89,30.25,10.0,Calm,Calm,-,N/A,,Clear,0,2012-11-20 07:35:00
3:15 AM,22.1,19.0,88,30.24,10.0,Calm,Calm,-,N/A,,Clear,0,2012-11-20 08:15:00
3:35 AM,22.5,19.6,89,30.23,10.0,Calm,Calm,-,N/A,,Clear,0,2012-11-20 08:35:00
7:15 AM,20.7,18.1,90,30.21,10.0,Calm,Calm,-,N/A,,Clear,0,2012-11-20 12:15:00
7:35 AM,22.3,19.6,89,30.22,10.0,Calm,Calm,-,N/A,,Clear,0,2012-11-20 12:35:00
7:55 AM,24.3,21.0,87,30.22,10.0,Calm,Calm,-,N/A,,Clear,0,2012-11-20 12:55:00
8:15 AM,24.8,21.6,87,30.22,10.0,Calm,Calm,-,N/A,,Clear,0,2012-11-20 13:15:00
8:35 AM,25.3,21.6,86,30.22,7.0,Calm,Calm,-,N/A,,Clear,0,2012-11-20 13:35:00
8:55 AM,26.4,21.9,83,30.22,10.0,Calm,Calm,-,N/A,,Clear,0,2012-11-20 13:55:00
9:15 AM,28.6,23.5,81,30.22,10.0,Calm,Calm,-,N/A,,Clear,0,2012-11-20 14:15:00
9:35 AM,30.4,24.8,80,30.22,10.0,Calm,Calm,-,N/A,,Clear,0,2012-11-20 14:35:00
9:55 AM,32.2,26.2,79,30.21,10.0,Calm,Calm,-,N/A,,Clear,0,2012-11-20 14:55:00
10:15 AM,32.9,25.7,75,30.21,10.0,Calm,Calm,-,N/A,,Clear,0,2012-11-20 15:15:00
10:35 AM,34.7,25.5,69,30.20,10.0,Calm,Calm,-,N/A,,Clear,0,2012-11-20 15:35:00
10:55 AM,36.0,23.9,62,30.19,10.0,Calm,Calm,-,N/A,,Clear,0,2012-11-20 15:55:00
11:15 AM,38.7,24.4,57,30.18,10.0,Calm,Calm,-,N/A,,Clear,0,2012-11-20 16:15:00
11:35 AM,41.0,24.3,51,30.17,10.0,Calm,Calm,-,N/A,,Clear,0,2012-11-20 16:35:00
11:55 AM,42.6,24.6,49,30.16,10.0,Calm,Calm,-,N/A,,Clear,0,2012-11-20 16:55:00
12:15 PM,44.2,24.8,46,30.16,5.0,Calm,Calm,-,N/A,,Haze,0,2012-11-20 17:15:00
12:35 PM,45.0,24.6,45,30.16,4.0,Calm,Calm,-,N/A,,Haze,0,2012-11-20 17:35:00
12:55 PM,45.5,24.4,44,30.15,10.0,Calm,Calm,-,N/A,,Clear,0,2012-11-20 17:55:00
1:15 PM,46.6,24.4,42,30.15,10.0,SE,3.5,-,N/A,,Clear,140,2012-11-20 18:15:00
1:35 PM,47.1,24.1,40,30.13,10.0,Calm,Calm,-,N/A,,Clear,0,2012-11-20 18:35:00
1:55 PM,48.4,24.1,39,30.13,10.0,Calm,Calm,-,N/A,,Clear,0,2012-11-20 18:55:00
2:15 PM,47.7,23.2,38,30.12,10.0,Calm,Calm,-,N/A,,Clear,0,2012-11-20 19:15:00
2:35 PM,48.4,22.8,37,30.13,10.0,Calm,Calm,-,N/A,,Clear,0,2012-11-20 19:35:00
2:55 PM,47.5,23.5,39,30.13,10.0,Calm,Calm,-,N/A,,Clear,0,2012-11-20 19:55:00
3:15 PM,44.8,24.6,45,30.13,10.0,West,4.6,-,N/A,,Clear,270,2012-11-20 20:15:00
3:35 PM,43.9,24.6,47,30.13,10.0,WSW,3.5,-,N/A,,Clear,250,2012-11-20 20:35:00
3:55 PM,42.4,24.8,50,30.13,10.0,West,3.5,-,N/A,,Clear,270,2012-11-20 20:55:00
4:15 PM,41.2,24.8,52,30.14,10.0,WSW,4.6,-,N/A,,Clear,250,2012-11-20 21:15:00
4:35 PM,41.0,25.2,53,30.14,10.0,West,3.5,-,N/A,,Clear,270,2012-11-20 21:35:00
4:55 PM,39.6,24.6,55,30.14,10.0,WNW,3.5,-,N/A,,Clear,290,2012-11-20 21:55:00
5:15 PM,38.8,24.4,56,30.15,10.0,WNW,4.6,-,N/A,,Clear,300,2012-11-20 22:15:00
5:35 PM,38.7,24.8,58,30.15,10.0,WNW,4.6,-,N/A,,Clear,290,2012-11-20 22:35:00
5:55 PM,38.5,24.8,58,30.16,10.0,WNW,3.5,-,N/A,,Clear,300,2012-11-20 22:55:00
6:15 PM,39.0,24.4,56,30.16,10.0,Calm,Calm,-,N/A,,Clear,0,2012-11-20 23:15:00
6:35 PM,37.8,24.4,59,30.17,10.0,Calm,Calm,-,N/A,,Clear,0,2012-11-20 23:35:00
6:55 PM,36.5,24.8,63,30.18,10.0,Calm,Calm,-,N/A,,Scattered Clouds,0,2012-11-20 23:55:00
7:15 PM,36.5,24.8,63,30.18,10.0,Calm,Calm,-,N/A,,Mostly Cloudy,0,2012-11-21 00:15:00
7:35 PM,35.8,25.2,65,30.18,10.0,Calm,Calm,-,N/A,,Mostly Cloudy,0,2012-11-21 00:35:00
7:55 PM,33.4,24.8,71,30.17,10.0,Calm,Calm,-,N/A,,Mostly Cloudy,0,2012-11-21 00:55:00
8:15 PM,33.3,24.8,71,30.16,10.0,Calm,Calm,-,N/A,,Overcast,0,2012-11-21 01:15:00
8:35 PM,35.1,24.8,66,30.17,10.0,Calm,Calm,-,N/A,,Scattered Clouds,0,2012-11-21 01:35:00
8:55 PM,34.5,25.0,68,30.17,10.0,Calm,Calm,-,N/A,,Mostly Cloudy,0,2012-11-21 01:55:00
9:15 PM,34.2,25.0,69,30.18,10.0,Calm,Calm,-,N/A,,Overcast,0,2012-11-21 02:15:00
9:35 PM,33.8,24.8,70,30.18,10.0,SW,3.5,-,N/A,,Mostly Cloudy,220,2012-11-21 02:35:00
9:55 PM,32.0,24.8,75,30.18,10.0,Calm,Calm,-,N/A,,Mostly Cloudy,0,2012-11-21 02:55:00
10:15 PM,32.9,24.8,72,30.18,10.0,Calm,Calm,-,N/A,,Overcast,0,2012-11-21 03:15:00
10:35 PM,32.2,25.2,75,30.18,10.0,Calm,Calm,-,N/A,,Mostly Cloudy,0,2012-11-21 03:35:00
10:55 PM,33.3,24.6,71,30.17,10.0,Calm,Calm,-,N/A,,Overcast,0,2012-11-21 03:55:00
11:15 PM,32.2,25.7,77,30.17,10.0,Calm,Calm,-,N/A,,Overcast,0,2012-11-21 04:15:00
11:35 PM,32.5,24.8,73,30.18,10.0,Calm,Calm,-,N/A,,Overcast,0,2012-11-21 04:35:00
11:55 PM,32.4,25.3,75,30.18,10.0,Calm,Calm,-,N/A,,Overcast,0,2012-11-21 04:55:00